EHI
0 0 1 0 0 1 2 3 1 0 0 1 2 3 3 4 5 5 5 4 2 1 0 1 2 2 1 0 1 1 1 0 0 0 0 0 0 0 0 0 0 0 0
0 1 1 1 0 1 2 2 1 0 0 0 1 2 2 2 4 6 6 4 2 1 1 2 3 1 0 0 0 1 0 0 0 0 0 0 0 0 0 0 0 0 0
0 1 2 2 2 2 2 1 1 0 0 0 0 1 1 1 3 5 6 4 2 1 1 3 3 1 0 0 0 1 0 1 2 1 1 0 0 0 0 0 0 0 0
0 0 1 3 4 4 3 2 1 0 0 0 0 0 0 1 2 4 5 5 3 3 3 3 2 1 0 0 0 0 0 1 2 1 0 0 0 0 0 0 0 0 0
0 0 2 4 5 6 6 4 2 1 0 0 0 0 0 1 2 4 5 4 3 3 3 2 1 0 0 0 0 0 0 0 1 0 0 0 0 0 0 0 0 0 0
0 0 3 5 6 7 7 6 4 2 1 1 1 0 0 1 3 4 4 3 2 2 2 1 0 0 0 1 2 1 0 0 0 0 0 0 0 0 0 0 0 0 0
0 0 3 6 7 7 7 6 5 3 2 2 2 1 1 2 3 4 3 2 1 2 2 1 0 0 0 1 2 1 0 0 0 0 0 0 1 1 1 0 0 0 0
0 0 2 5 6 6 6 5 4 4 3 3 1 1 1 1 2 2 2 1 1 1 1 0 0 0 0 0 1 1 0 0 0 0 0 0 1 1 1 0 0 0 0
0 0 1 2 3 4 4 4 3 3 2 1 0 0 0 0 1 1 1 1 1 1 1 0 0 0 0 0 0 1 0 0 0 0 0 0 0 0 0 0 1 1 0
0 0 0 0 0 1 2 2 2 1 1 0 0 0 0 0 0 0 0 0 1 2 2 1 0 0 0 0 0 1 0 0 0 0 0 0 0 0 0 0 1 1 1
0 0 0 0 0 0 0 1 1 0 0 0 0 0 0 0 0 0 0 0 1 1 1 1 0 0 1 1 0 0 0 0 0 0 0 0 0 0 0 1 1 1 1
0 0 0 0 0 0 0 0 0 0 0 0 0 0 0 0 0 0 0 0 0 0 0 0 0 0 1 2 1 0 0 0 0 0 0 0 0 0 0 2 3 2 1
0 0 0 0 0 0 0 0 0 0 0 0 0 0 0 0 0 0 0 0 0 0 0 0 0 0 1 1 1 0 0 0 0 0 0 0 0 0 0 1 3 3 2
0 0 0 0 0 0 0 0 0 0 0 0 0 0 0 0 0 0 0 0 0 0 0 0 0 0 0 0 0 0 0 0 0 0 0 0 0 1 1 1 2 1 1
0 0 0 0 0 0 0 0 0 0 0 0 0 0 0 0 0 0 0 0 0 0 0 0 0 0 0 0 0 0 0 0 0 0 0 0 1 2 2 1 1 1 0
0 0 0 0 0 0 0 0 0 0 0 0 0 0 0 0 0 0 0 0 0 0 0 0 0 0 0 0 0 0 0 0 0 0 0 0 1 2 2 1 1 2 1
0 0 0 0 0 0 0 0 0 0 0 0 0 0 0 0 0 0 0 0 0 0 0 0 0 0 1 1 0 0 0 0 0 0 0 0 1 1 2 2 2 2 3
0 0 0 0 0 0 0 0 1 0 0 0 1 1 1 1 1 0 0 0 0 0 1 1 1 1 1 0 0 0 0 0 0 0 0 0 0 0 1 3 4 3 4
0 0 0 1 1 1 1 0 0 0 1 1 2 2 2 2 2 1 0 0 0 1 2 2 2 1 0 0 0 0 0 0 0 0 0 0 0 0 1 2 3 3 4
0 0 0 1 3 4 3 1 1 2 2 3 3 3 3 3 4 4 2 1 1 2 2 2 1 0 0 0 0 0 0 0 0 0 0 0 0 0 0 0 1 2 2
1 1 1 2 6 7 6 4 4 4 3 3 3 3 3 3 4 5 4 2 2 3 2 1 0 0 0 0 0 0 0 0 0 0 0 0 0 0 0 0 0 0 1
2 3 3 4 7 8 8 7 5 4 3 3 3 3 4 4 4 3 3 2 3 3 2 1 0 0 0 0 0 0 0 0 0 0 0 0 0 0 0 0 0 0 0
3 4 5 6 6 7 8 7 4 3 3 3 4 4 4 4 4 2 1 1 2 3 2 1 0 0 0 0 0 0 0 0 0 0 0 0 0 0 0 0 0 0 0
3 4 5 6 6 6 6 5 3 2 3 4 4 5 4 3 2 1 0 0 1 2 2 1 0 0 0 1 1 0 0 0 0 0 0 0 0 0 0 0 0 0 0
4 5 6 6 5 4 4 3 2 3 4 4 4 4 3 1 1 1 0 0 0 1 1 0 0 0 1 2 2 1 0 0 0 0 0 0 0 0 0 0 0 0 0
6 7 7 6 5 4 3 2 2 3 4 4 3 3 2 1 1 0 0 0 0 0 0 0 0 0 1 2 3 2 1 0 0 0 0 0 0 0 0 0 0 0 0
Wind_Speed
3 4 3 5 6 7 8 8 9 10 10 11 12 13 14 14 15 15 15 15 15 15 15 15 15 15 15 15 15 15 15 14 14 14 14 13 13 13 13 13 13 10 14
2 3 3 5 7 7 8 9 10 10 11 12 13 14 14 14 15 15 15 14 15 15 15 14 15 15 15 15 15 15 14 13 13 13 13 12 13 12 12 12 12 9 13
2 3 2 5 7 8 9 10 10 11 12 13 13 14 14 14 14 14 14 14 15 15 14 15 15 14 14 14 14 13 13 12 12 12 11 7 8 11 11 12 12 13 13
2 2 3 6 7 8 9 10 11 11 13 13 13 13 13 14 14 14 14 14 14 14 14 14 14 14 14 13 13 12 12 11 12 11 6 6 6 10 11 11 12 12 13
2 2 2 6 7 8 9 10 11 11 12 13 13 13 13 13 13 13 13 13 14 14 14 14 14 14 13 12 12 11 11 11 11 9 6 5 4 9 11 11 12 12 12
3 3 3 6 7 8 9 10 11 11 12 12 12 12 12 12 12 12 13 13 13 13 13 13 13 13 12 11 11 10 10 10 8 6 5 5 5 9 11 12 12 12 12
3 3 3 6 8 9 10 10 11 12 12 12 12 11 11 12 12 11 12 12 12 12 12 12 12 11 11 10 10 9 9 9 6 5 5 4 5 9 10 11 11 12 12
3 3 3 6 8 9 10 11 12 11 11 11 11 11 11 11 11 10 10 11 11 11 11 11 10 10 9 9 8 7 7 7 6 5 5 5 7 9 10 10 11 11 12
5 4 4 4 5 8 9 10 10 10 10 11 10 10 10 10 10 10 9 10 10 10 10 9 9 9 8 8 7 6 6 6 5 4 5 4 7 9 10 10 11 11 11
5 4 4 5 5 4 4 8 9 9 10 10 10 9 9 8 8 8 8 8 9 9 8 8 8 7 7 6 6 6 6 6 4 4 3 4 8 9 10 10 10 11 11
3 3 4 4 4 4 3 5 6 8 8 8 7 8 7 4 4 4 5 7 7 7 6 6 6 6 5 4 4 5 5 2 4 3 3 6 8 9 11 10 10 11 11
1 1 2 3 3 3 3 3 3 4 5 4 4 4 3 3 3 3 4 5 5 5 5 5 5 4 3 2 2 3 2 3 3 2 3 7 8 9 10 10 11 11 12
1 1 1 1 2 2 2 3 2 2 3 3 3 3 3 3 2 2 2 2 3 3 2 2 2 1 1 1 1 2 2 2 2 2 3 7 8 9 10 10 11 11 11
2 1 1 1 2 2 2 2 2 2 2 2 2 2 2 2 2 1 1 1 1 1 1 1 1 1 1 1 2 2 2 2 2 2 3 7 8 10 11 11 11 12 12
2 2 1 2 2 1 1 1 2 1 1 1 1 1 2 2 1 1 1 1 1 0 1 1 0 1 1 1 1 2 2 3 3 3 2 7 8 9 11 12 12 12 12
4 3 2 2 2 2 2 1 1 1 1 1 1 1 1 1 1 1 1 0 0 0 0 1 1 1 1 1 1 2 2 2 3 3 3 5 9 9 11 12 12 12 13
4 3 3 3 2 2 2 2 1 1 1 1 0 1 1 1 1 1 1 0 0 0 0 1 1 1 1 1 1 1 2 2 2 3 4 3 4 8 11 11 12 12 12
4 4 3 3 3 2 2 1 1 1 1 1 0 0 1 1 1 1 1 1 0 0 1 1 1 1 0 0 0 1 1 1 2 3 3 3 3 4 7 10 11 11 12
5 4 4 3 4 3 2 1 1 1 1 0 0 0 0 1 1 1 1 1 0 1 1 1 1 1 1 0 0 1 1 1 1 2 2 3 3 3 3 6 9 10 11
4 4 4 3 4 3 2 1 1 1 1 0 0 1 1 1 1 1 1 1 0 1 0 1 1 1 1 1 0 0 1 1 1 1 2 2 2 3 3 4 4 6 9
4 4 4 4 3 3 2 2 1 1 0 0 1 1 1 1 1 1 1 0 1 1 1 1 1 1 1 1 1 1 2 1 0 1 1 1 2 2 3 3 3 3 4
5 5 5 4 4 4 2 2 2 1 1 1 0 1 0 0 1 1 1 1 1 1 1 1 1 1 1 1 1 1 2 3 2 1 0 1 1 1 2 3 4 4 4
6 6 6 5 4 3 3 2 2 2 2 1 1 1 1 1 0 0 1 1 1 1 1 1 2 2 1 0 1 2 2 1 2 2 1 1 0 1 2 2 3 4 5
7 5 5 5 4 4 4 4 3 2 1 1 1 1 2 1 1 0 0 1 1 1 1 1 1 1 2 1 0 0 1 2 1 1 2 1 1 1 1 2 2 3 4
6 6 5 5 4 4 4 5 4 2 1 1 0 1 1 2 1 1 0 1 1 1 1 1 1 1 1 2 1 1 1 0 1 1 2 1 1 1 1 1 1 1 2
5 5 5 5 4 4 4 4 5 4 3 2 1 1 1 1 1 1 0 1 1 1 1 1 1 2 1 2 1 1 2 2 2 2 2 1 1 1 1 1 1 0 1
Wind_Direction
316 319 17 67 83 97 98 102 108 114 115 119 123 123 125 128 131 134 136 137 135 134 134 132 129 129 128 127 128 129 130 130 130 129 129 128 129 129 128 127 124 122 123
305 326 38 76 84 93 98 104 105 112 116 119 120 121 122 124 127 130 133 133 133 133 132 131 129 129 129 128 128 130 131 132 133 132 131 130 131 132 132 131 128 127 126
12 355 51 84 89 91 96 105 105 111 114 114 113 116 119 122 123 125 128 129 130 131 133 131 130 130 129 128 127 129 131 132 133 131 126 122 130 136 137 134 132 130 129
42 18 61 89 92 94 98 102 103 105 107 110 112 114 117 118 120 122 125 128 129 128 129 132 133 131 129 128 127 129 131 132 132 129 119 124 132 138 137 136 136 135 132
50 32 56 93 99 100 102 105 106 105 106 108 110 112 114 116 117 121 125 129 130 129 130 131 130 130 130 129 129 132 133 133 132 126 121 122 124 138 138 140 141 139 137
54 35 49 86 94 99 104 110 113 111 109 108 110 112 113 114 116 119 125 130 130 129 129 129 127 129 130 132 134 135 136 136 127 124 127 130 134 146 146 147 146 144 142
60 40 50 85 91 93 101 107 111 111 110 110 111 113 112 111 114 116 121 125 126 127 128 129 131 132 132 133 134 135 138 138 131 130 133 138 151 153 152 149 149 147 144
65 49 47 75 88 89 97 104 105 108 111 112 112 111 110 110 112 114 114 122 126 127 128 129 130 129 130 132 134 133 137 140 134 138 138 147 158 159 157 153 154 153 150
53 47 34 38 64 83 91 97 100 105 111 111 108 110 111 112 112 113 114 116 121 123 125 126 128 128 127 130 134 135 134 138 135 140 149 152 164 166 163 160 160 160 157
48 40 36 36 45 55 70 93 98 103 107 106 106 107 107 108 111 115 114 115 118 119 123 126 129 129 129 131 138 142 133 133 140 147 151 163 172 173 169 168 168 166 163
50 35 36 38 45 49 59 84 86 93 93 93 95 97 89 75 77 95 110 119 122 119 120 125 125 122 124 124 134 141 130 134 145 154 164 177 181 181 177 177 176 173 171
80 47 39 38 43 48 65 62 57 65 66 65 68 73 73 72 70 83 92 107 117 115 113 115 120 123 116 107 119 122 122 146 154 169 183 187 189 189 186 182 183 182 179
154 102 76 59 52 56 57 63 58 57 62 60 63 72 75 70 63 56 56 59 62 76 77 84 81 92 113 124 121 126 143 155 166 181 192 194 196 195 194 190 189 188 186
132 151 131 108 80 65 66 71 73 69 66 63 55 67 86 84 65 51 64 53 50 65 83 85 102 133 144 161 157 163 174 172 177 185 201 203 204 204 202 198 196 196 194
160 178 167 134 124 106 87 88 93 89 89 83 66 66 98 107 105 80 63 71 77 104 132 136 156 177 169 186 188 180 186 187 192 193 204 210 210 209 207 205 203 203 202
185 192 178 159 151 126 117 113 107 115 111 95 86 84 107 122 124 117 96 51 58 153 161 163 176 172 169 180 192 188 198 193 194 197 205 215 216 215 214 213 211 210 209
191 185 181 176 149 140 142 150 138 134 122 123 139 128 133 136 135 129 142 241 267 101 103 129 136 143 154 177 186 200 204 201 198 201 206 212 217 220 218 218 216 215 215
182 177 184 177 148 149 147 145 120 113 123 146 145 133 156 160 155 137 161 228 225 141 132 148 144 133 156 169 185 240 224 212 217 212 212 214 213 219 224 224 223 221 220
181 177 172 165 155 159 155 139 135 119 121 138 117 161 241 183 156 155 185 241 172 147 163 178 142 158 161 163 211 249 249 222 232 226 220 218 211 213 222 231 230 226 225
171 168 164 160 156 147 130 102 77 62 42 55 177 213 224 222 181 154 185 232 165 146 161 154 142 124 149 183 251 15 312 256 238 240 235 224 213 216 219 228 232 233 230
165 165 170 166 164 148 133 129 129 189 242 287 247 230 228 239 206 168 171 152 154 176 191 167 143 129 129 132 96 15 352 346 255 261 241 218 218 218 209 218 224 226 230
180 181 178 178 172 169 158 149 154 155 176 200 295 354 320 252 229 195 163 167 181 170 147 144 139 131 127 132 126 89 1 352 354 350 325 244 239 221 228 231 226 221 220
186 188 189 185 177 171 154 122 98 72 51 37 7 335 317 320 281 230 166 180 183 175 179 182 167 160 163 168 121 136 145 238 314 340 359 334 293 224 243 240 233 224 217
192 185 183 181 175 170 157 151 152 156 171 215 227 286 320 340 319 334 170 175 175 175 188 206 168 161 158 173 183 178 174 164 178 310 326 349 353 298 266 256 244 226 215
182 179 181 176 176 171 163 164 163 166 183 178 114 291 315 330 331 347 161 155 166 177 193 196 159 162 169 173 175 171 164 162 185 196 276 315 348 350 325 278 270 244 216
177 176 173 172 187 178 170 167 170 176 179 173 207 241 273 301 319 337 123 154 166 176 193 201 187 175 187 180 175 168 168 182 199 199 225 259 294 324 356 2 330 291 177